Terminal Aerodrome Forecast
Issued by NWS

Home | Current Version | Previous Version | Text Only | Print | Product List | Glossary On
Versions: 1 2 3 4 5 6 7 8 9 10 11 12 13 14 15 16 17 18 19 20 21 22 23 24 25 26 27 28 29 30 31 32 33 34 35 36 37 38 39 40 41 42 43 44 45 46 47 48 49 50
000
FTUS42 KMFL 272332
TAFMIA
TAF
KMIA 272332Z 2800/2824 VRB03KT P6SM FEW020 FEW060 BKN250
     FM281400 25007KT P6SM SCT020 SCT250
     FM281800 17006KT P6SM VCTS SCT030CB BKN070 BKN250=

USA.gov is the U.S. government's official web portal to all federal, state and local government web resources and services.